Wetbulb
70.07 70.50 70.67 71.08 70.62 70.38 69.96 69.84 69.84 69.73 69.68 69.80 69.90 69.76 69.42 69.61 69.97 68.90 69.06 69.80 70.21 70.03 69.58 68.96 69.29 68.94 68.29 67.60 67.98 68.92 66.89 66.59
70.76 71.04 70.67 70.83 70.63 69.80 69.76 69.42 69.31 69.19 69.01 68.74 69.16 69.12 69.53 69.43 69.23 69.35 68.92 69.25 69.73 69.67 69.15 68.97 68.95 68.08 67.68 67.61 68.25 67.99 66.79 65.49
71.20 70.96 71.42 71.62 70.92 70.74 69.93 69.90 69.24 68.93 68.67 68.23 68.24 69.00 68.53 68.07 67.19 67.78 68.56 69.06 69.03 69.05 68.65 68.23 67.70 67.53 67.71 67.78 68.45 67.19 66.17 64.84
70.64 70.93 71.38 71.39 71.44 70.58 70.45 70.10 69.38 69.41 68.89 68.49 68.55 69.23 68.79 67.33 67.84 68.31 68.44 68.24 68.47 68.47 67.93 67.16 66.70 66.83 66.80 67.33 66.91 66.61 65.25 63.42
69.35 70.34 71.73 70.98 70.56 70.69 70.02 69.36 69.02 68.92 68.27 68.06 68.09 69.12 67.82 68.47 68.21 68.29 67.75 68.13 67.73 67.57 66.73 65.53 65.32 66.80 67.34 67.01 66.93 65.71 64.34 62.94
69.13 70.11 71.11 71.05 70.83 69.86 68.80 68.37 68.48 67.69 67.17 66.90 66.18 67.51 67.74 68.12 67.49 66.78 65.70 65.75 66.57 66.84 66.17 64.98 65.77 67.24 67.23 66.39 65.54 64.89 63.19 62.53
68.28 69.70 70.75 71.15 70.07 69.31 68.53 67.71 67.74 67.40 65.68 66.41 65.96 65.85 65.98 66.37 66.13 66.39 65.89 67.02 66.67 66.79 66.45 66.98 66.70 66.82 66.58 66.11 64.96 63.91 62.91 61.86
68.56 69.38 70.65 70.48 70.06 69.10 68.09 67.91 67.96 66.65 65.76 66.32 65.74 64.98 64.79 64.23 64.48 66.94 67.08 67.49 67.13 66.89 67.19 66.76 66.15 66.68 66.19 65.21 64.65 63.56 61.93 61.28
68.25 68.33 70.83 70.41 70.12 69.37 68.69 68.14 67.29 65.85 65.11 64.97 65.41 65.21 64.73 64.74 65.35 66.66 67.43 67.67 66.98 67.25 66.95 67.17 66.31 66.25 64.81 64.64 64.09 62.95 61.53 61.08
68.67 68.45 69.16 69.99 70.04 69.43 69.02 68.11 67.40 65.76 64.52 64.56 65.14 65.18 64.64 65.01 66.54 66.60 67.40 67.81 67.70 67.13 66.58 65.32 65.15 64.85 64.39 63.51 63.20 62.77 61.66 61.45
67.75 68.47 68.55 69.45 69.77 69.41 69.07 68.22 67.15 66.23 64.81 64.21 64.51 64.24 63.56 65.07 65.86 66.53 67.29 67.14 67.17 66.49 65.37 64.59 63.51 63.44 63.14 62.15 61.82 61.76 61.39 61.57
67.93 67.45 68.41 69.09 69.87 69.26 68.70 68.05 67.69 66.88 65.82 65.94 65.57 65.06 64.30 65.46 65.10 66.00 66.33 66.43 66.61 65.55 64.24 64.17 63.14 61.98 60.29 59.34 59.99 60.42 59.86 59.94
67.34 66.42 68.02 68.19 68.46 67.51 66.72 65.59 66.86 66.74 66.18 64.96 64.05 64.01 65.94 64.92 64.72 65.66 65.53 65.83 65.42 65.24 63.89 62.48 61.37 58.84 55.04 54.12 54.26 55.80 57.44 59.20
66.94 66.63 67.10 67.32 68.32 68.29 67.46 67.17 67.36 66.30 65.54 63.98 63.96 63.52 63.69 66.84 66.69 66.53 66.34 66.04 65.42 65.16 63.66 61.98 59.68 58.88 56.94 55.56 51.96 52.96 54.24 57.62
66.96 67.24 66.97 66.93 67.73 68.18 67.80 67.44 67.11 65.60 64.34 62.97 62.98 63.02 64.07 65.13 66.79 66.50 65.90 65.63 65.42 65.12 63.80 61.72 58.61 59.78 59.69 58.62 53.41 53.79 53.85 55.26
66.90 67.37 66.50 66.75 67.07 66.09 66.06 65.21 64.04 65.14 64.01 63.03 61.66 62.03 63.20 64.06 65.44 66.91 65.21 66.18 66.05 65.03 64.27 62.49 61.31 58.98 61.14 61.86 62.66 59.63 55.02 52.05
66.54 67.14 66.18 66.30 66.24 65.82 65.17 64.08 65.32 66.07 65.27 63.14 61.65 62.86 63.51 64.08 64.82 66.49 65.38 66.52 66.24 65.22 63.83 63.76 62.90 60.96 61.22 60.42 61.77 60.48 58.71 54.71
66.04 66.30 65.92 66.01 65.56 65.28 65.04 64.12 64.67 65.11 65.06 63.65 61.90 61.85 62.71 63.69 64.30 65.15 66.38 65.42 66.64 65.84 64.88 64.67 63.85 63.30 62.66 62.85 61.55 59.07 57.21 55.32
65.15 65.75 65.02 65.81 65.14 64.81 64.93 64.62 64.91 64.27 64.80 64.43 63.58 62.31 63.00 63.22 63.33 63.19 65.70 65.44 66.82 66.27 65.57 65.18 65.38 64.39 63.62 63.11 63.35 61.73 61.27 58.25
52.24 62.97 64.80 65.24 64.99 64.46 64.62 64.82 65.12 65.31 64.63 65.17 64.44 63.97 64.25 64.09 63.68 63.43 63.84 65.46 66.04 66.55 65.85 65.80 65.72 64.86 64.17 63.87 63.51 62.61 62.12 58.26
MSLP
1006.64 1007.27 1007.87 1008.34 1008.71 1009.25 1009.63 1010.28 1011.00 1011.61 1012.16 1012.80 1013.47 1014.14 1014.60 1015.10 1015.55 1016.18 1016.66 1017.09 1017.14 1017.64 1018.03 1018.08 1018.50 1018.76 1019.01 1019.00 1019.00 1018.93 1019.86 1020.55
1006.77 1007.17 1007.63 1008.20 1008.74 1009.28 1009.75 1010.53 1011.20 1011.81 1012.33 1012.98 1013.67 1014.29 1014.77 1015.25 1015.79 1016.23 1016.90 1017.23 1017.31 1017.61 1018.01 1018.24 1018.77 1019.00 1019.09 1018.94 1018.96 1019.44 1020.29 1021.11
1006.78 1007.23 1007.37 1007.84 1008.59 1009.34 1009.94 1010.65 1011.35 1011.98 1012.72 1013.35 1013.88 1014.42 1014.98 1015.58 1015.99 1016.55 1016.99 1017.36 1017.58 1017.86 1018.11 1018.48 1018.87 1019.18 1019.17 1019.16 1019.35 1019.86 1020.58 1021.55
1006.97 1007.21 1007.48 1007.73 1008.54 1009.31 1009.98 1010.70 1011.46 1011.99 1012.74 1013.25 1013.77 1014.24 1014.96 1015.46 1016.09 1016.65 1016.98 1017.40 1017.89 1018.22 1018.39 1018.64 1018.89 1019.07 1019.33 1019.39 1019.77 1020.26 1021.13 1022.04
1006.86 1007.10 1007.41 1007.80 1008.65 1009.20 1009.96 1010.73 1011.53 1012.02 1012.68 1013.23 1013.66 1014.07 1014.85 1015.59 1016.27 1016.76 1017.16 1017.59 1018.09 1018.45 1018.75 1018.77 1018.53 1018.82 1019.26 1019.79 1020.11 1020.67 1021.54 1022.40
1006.37 1006.84 1007.23 1007.72 1008.51 1009.29 1009.82 1010.68 1011.29 1011.72 1012.69 1013.24 1013.70 1013.90 1014.85 1015.31 1015.82 1016.53 1017.09 1017.45 1017.88 1018.24 1018.56 1018.48 1018.53 1018.95 1019.64 1020.09 1020.42 1020.96 1021.96 1022.83
1005.32 1006.27 1007.02 1007.55 1008.49 1009.35 1009.84 1010.60 1011.19 1012.03 1012.79 1013.22 1013.52 1013.68 1014.49 1014.85 1015.38 1016.10 1016.69 1016.82 1017.46 1017.83 1018.13 1018.33 1018.57 1019.23 1019.94 1020.18 1020.65 1021.37 1022.19 1022.93
1004.46 1005.63 1006.57 1007.14 1008.18 1009.06 1009.85 1010.38 1011.07 1011.90 1012.86 1013.23 1013.50 1013.35 1014.09 1014.63 1015.15 1015.59 1016.13 1016.41 1016.83 1017.31 1017.73 1018.42 1018.91 1019.49 1020.12 1020.52 1021.00 1021.66 1022.42 1022.99
1003.89 1005.12 1006.09 1006.80 1007.63 1008.81 1009.50 1010.17 1010.94 1011.72 1012.71 1013.20 1013.23 1013.43 1013.96 1014.14 1014.83 1015.29 1015.52 1015.86 1016.22 1016.91 1017.66 1018.34 1019.33 1019.65 1020.48 1020.88 1021.34 1021.91 1022.56 1023.07
1003.24 1004.58 1005.72 1006.56 1007.11 1008.31 1009.29 1010.02 1010.77 1011.60 1012.24 1013.10 1013.27 1013.40 1013.59 1013.91 1014.39 1014.69 1014.97 1015.54 1016.11 1016.99 1018.04 1018.84 1019.48 1020.11 1020.84 1021.20 1021.64 1021.98 1022.52 1022.85
1002.54 1003.84 1005.32 1006.28 1006.71 1007.78 1009.00 1009.83 1010.62 1011.42 1012.33 1013.30 1013.80 1013.44 1013.65 1013.83 1014.06 1014.38 1014.78 1015.79 1016.54 1017.51 1018.16 1018.55 1019.79 1020.56 1021.11 1021.59 1021.94 1022.26 1022.52 1022.72
1001.83 1003.32 1004.93 1005.93 1006.48 1007.17 1008.45 1009.47 1010.29 1010.91 1011.51 1012.86 1013.39 1013.45 1013.42 1013.92 1014.02 1014.25 1014.56 1015.92 1016.71 1017.49 1017.83 1019.00 1019.94 1020.68 1021.43 1022.11 1022.33 1022.66 1022.84 1022.89
1001.06 1002.75 1004.23 1005.46 1006.14 1006.66 1007.67 1008.57 1009.68 1010.36 1010.46 1011.58 1012.59 1013.13 1013.16 1013.68 1013.96 1014.33 1014.38 1015.30 1016.22 1016.95 1017.77 1018.84 1020.27 1020.92 1021.64 1022.83 1023.18 1023.39 1023.36 1023.18
1000.37 1002.08 1003.74 1005.02 1005.64 1006.13 1007.06 1008.08 1009.04 1009.98 1011.16 1012.04 1012.62 1013.01 1013.25 1013.21 1013.52 1013.61 1014.12 1014.92 1015.50 1016.76 1017.60 1018.95 1020.22 1020.52 1021.01 1022.06 1023.35 1024.00 1023.74 1023.31
999.83 1001.37 1003.02 1004.59 1005.41 1005.74 1006.66 1007.89 1008.86 1009.89 1010.89 1011.95 1012.30 1012.36 1012.81 1013.27 1013.10 1013.16 1013.55 1014.00 1015.27 1016.70 1017.30 1018.05 1019.36 1020.01 1020.00 1020.11 1021.86 1022.09 1023.01 1023.46
999.27 1000.76 1002.40 1003.87 1005.11 1005.51 1005.96 1006.80 1007.64 1008.52 1009.88 1011.14 1012.28 1013.04 1013.31 1013.24 1012.68 1012.88 1013.35 1013.85 1015.26 1016.14 1017.03 1017.49 1018.54 1019.14 1019.58 1019.03 1018.93 1019.66 1021.17 1022.84
998.56 1000.14 1001.75 1003.02 1004.51 1005.38 1005.66 1005.97 1006.87 1007.73 1009.12 1010.49 1011.85 1012.60 1013.06 1012.90 1012.95 1012.58 1013.01 1013.68 1014.59 1015.65 1016.67 1017.01 1017.84 1018.39 1018.43 1018.50 1018.85 1019.12 1019.46 1020.54
998.19 999.69 1000.85 1002.24 1003.46 1004.81 1005.43 1005.77 1005.67 1006.84 1007.94 1009.42 1010.63 1011.81 1012.09 1012.24 1012.13 1012.06 1012.60 1013.22 1014.15 1015.01 1015.87 1016.42 1016.95 1017.44 1017.70 1017.88 1018.08 1018.52 1019.00 1019.67
1000.17 998.99 1000.28 1001.39 1002.48 1003.74 1004.83 1005.32 1005.29 1005.52 1006.67 1007.76 1008.79 1010.14 1010.54 1010.61 1011.23 1011.64 1012.12 1012.70 1013.64 1014.47 1015.05 1015.74 1016.10 1016.48 1016.94 1017.23 1017.41 1017.84 1018.11 1018.80
1004.05 1001.72 999.44 999.97 1001.07 1002.21 1003.70 1004.70 1004.82 1004.63 1005.48 1006.52 1007.44 1008.20 1008.97 1009.77 1010.47 1010.93 1011.54 1012.21 1012.97 1013.81 1014.36 1014.85 1015.39 1015.85 1016.26 1016.63 1016.88 1017.20 1017.39 1017.99
Wind_Speed
10 10 10 9 11 11 16 19 19 21 20 17 19 17 18 18 19 21 20 17 19 17 13 13 10 9 7 4 3 17 13 10
10 10 10 10 9 13 20 21 20 21 19 19 15 18 19 19 19 19 18 17 18 19 14 12 10 9 6 2 11 22 13 13
7 9 9 10 11 13 17 20 20 20 19 18 13 11 13 16 16 18 21 18 18 17 14 11 11 7 4 3 12 9 11 9
8 7 9 11 10 13 12 13 10 10 11 13 8 11 11 14 15 19 18 17 16 14 12 11 9 6 4 3 7 10 9 9
8 7 9 11 9 8 7 7 6 8 12 11 6 9 11 9 8 8 9 14 8 10 9 6 6 6 5 6 7 10 8 7
13 13 10 11 9 8 9 8 8 7 9 10 3 7 10 9 8 9 9 8 11 9 7 8 7 8 9 7 10 9 8 6
16 13 12 11 12 9 9 10 9 9 9 8 3 5 8 10 10 10 10 9 10 10 9 5 6 10 8 9 10 12 12 7
18 13 14 14 13 14 11 10 11 11 10 7 6 5 8 10 11 11 10 10 9 9 8 5 6 10 9 9 9 10 10 10
18 15 14 14 16 14 12 11 12 11 9 10 4 2 5 13 12 11 9 8 12 6 9 8 8 8 10 8 8 10 9 10
20 14 14 13 15 13 10 11 11 11 10 8 8 5 7 5 7 9 7 4 6 8 10 9 8 8 7 7 6 8 8 9
20 16 17 13 13 13 13 15 11 11 11 9 12 11 14 6 7 7 7 6 8 7 9 10 9 6 7 7 5 6 4 4
20 14 16 15 12 12 11 12 12 13 12 10 13 14 15 9 6 9 9 9 10 10 12 9 9 8 8 6 5 4 3 1
21 19 16 13 11 11 12 12 11 11 9 15 5 3 10 14 11 11 10 9 12 14 13 15 8 10 7 5 5 5 3 3
21 21 17 14 10 12 10 10 10 8 11 12 11 5 6 8 5 8 8 15 14 14 14 10 8 9 5 5 3 0 3 3
20 21 19 16 13 11 10 11 10 8 11 12 13 13 8 11 7 5 6 5 11 13 14 14 9 9 12 5 4 4 4 3
20 21 20 17 11 13 17 14 13 11 10 12 14 17 15 13 9 12 9 5 13 12 11 12 10 10 7 7 1 6 4 4
20 22 22 19 16 14 9 10 13 13 13 18 17 16 18 19 16 12 14 7 14 15 13 13 10 9 9 4 4 4 4 4
19 24 24 21 20 18 16 15 10 15 17 16 15 15 16 19 19 8 10 8 15 13 14 15 11 11 8 6 4 4 4 3
9 24 23 23 23 22 20 17 16 16 20 16 19 16 15 17 16 13 9 12 14 14 14 14 11 8 10 6 5 5 4 5
22 16 24 25 24 24 21 19 13 11 16 15 14 15 15 17 16 15 12 13 10 14 11 10 11 8 8 7 4 4 3 4
Wind_Direction
130 141 140 145 146 147 137 139 140 142 138 130 127 139 146 150 140 140 142 151 137 134 146 143 151 116 126 190 337 103 102 101
144 142 156 148 146 135 139 143 140 136 140 145 157 157 156 142 146 144 152 156 144 143 153 149 133 144 155 90 105 103 99 93
134 157 147 145 134 139 140 145 144 140 147 165 153 159 150 141 139 159 163 147 141 142 151 140 143 136 113 355 92 97 99 97
160 171 163 142 135 146 144 143 141 151 148 159 160 151 152 158 165 158 138 136 137 139 140 145 162 151 151 115 106 102 94 103
182 188 163 147 142 138 137 139 141 141 143 153 178 148 149 145 142 138 138 139 147 141 143 173 171 148 99 101 99 102 96 102
190 180 168 151 143 145 137 140 137 135 145 149 227 149 157 150 150 149 153 160 153 156 170 184 169 114 115 108 110 106 106 109
171 175 178 150 149 144 143 145 141 141 149 161 238 160 156 151 151 158 169 166 175 169 176 188 153 116 111 101 103 109 116 124
164 187 174 157 153 156 153 150 144 146 160 175 222 148 149 158 158 162 180 163 179 173 172 167 138 119 114 114 114 111 116 120
165 184 163 167 154 160 156 156 151 154 162 167 179 228 169 159 174 167 188 164 180 150 114 114 118 111 107 113 110 121 125 131
159 174 173 175 157 157 160 157 154 153 157 167 183 204 166 156 164 171 176 203 134 131 126 125 108 115 123 123 122 120 138 147
163 165 173 190 172 156 160 158 161 162 159 175 181 194 184 183 161 166 188 131 123 132 125 121 120 118 114 112 112 121 129 154
161 168 170 187 171 155 161 163 170 172 166 184 201 193 182 178 175 187 187 143 148 145 129 120 128 127 106 82 81 74 100 149
163 167 173 180 187 169 163 169 168 165 170 171 163 315 174 192 191 201 190 151 155 145 134 130 139 128 103 66 38 12 350 224
165 168 161 187 196 173 168 163 165 159 156 167 170 194 276 199 198 178 185 165 145 142 145 136 139 163 134 125 134 256 292 273
168 165 167 179 196 185 164 161 163 152 157 168 176 178 219 260 192 185 176 125 140 154 151 148 159 192 162 147 149 201 141 177
169 164 170 174 187 203 189 169 174 168 159 157 168 177 208 254 229 181 187 161 148 155 160 157 160 185 187 241 246 129 181 155
171 160 168 174 179 200 199 207 175 168 160 160 167 181 195 207 238 186 181 187 158 162 167 165 178 187 193 172 196 212 141 140
166 163 169 175 180 187 202 211 198 171 166 169 172 189 193 201 210 188 177 188 162 169 173 178 191 187 190 195 185 178 163 154
266 164 175 178 180 187 199 212 221 171 173 172 171 184 190 192 194 188 182 190 169 173 175 187 195 188 184 202 191 182 176 161
324 279 175 180 181 183 193 208 217 195 176 177 178 182 186 189 192 186 189 185 175 177 184 185 189 192 198 202 190 214 173 141